Weather History for KCWI - June, 2013

Change the Weather History Date:

Tuesday, June 18, 2013

  Actual Average Record
Temperature  
Mean Temperature 68 °F -  
Max Temperature 78 °F 82 °F 95 °F (1954)
Min Temperature 59 °F 61 °F 45 °F (1950)
Cooling Degree Days 4    
Growing Degree Days 18 (Base 50)    
Moisture  
Dew Point 53 °F    
Average Humidity 57    
Maximum Humidity 73    
Minimum Humidity 42    
Precipitation  
Precipitation 0.00 in - - ()
Sea Level Pressure  
Sea Level Pressure 30.02 in    
Wind  
Wind Speed 11 mph (ENE)    
Max Wind Speed 17 mph    
Max Gust Speed 21 mph    
Visibility 10 miles    
Events      
Averages and records for this station are not official NWS values.
T = Trace of Precipitation, MM = Missing Value Source: NWS Daily Summary

Daily Weather History Graph

Daily Weather History Graph

Search for Another Location

Airport or City:

Trip Planner

Search our weather history database for the weather conditions in past years. The results will help you decide how hot, cold, wet, or windy it might be!

Date:

Astronomy

Jun. 18, 2013 Rise Set
Actual Time 5:25 AM CDT 8:39 PM CDT
Civil Twilight 4:51 AM CDT 9:13 PM CDT
Nautical Twilight 4:07 AM CDT 9:57 PM CDT
Astronomical Twilight 3:14 AM CDT 10:51 PM CDT
Moon 3:20 PM CDT (6/18) 1:38 AM CDT (6/18)
Length of Visible Light 16h 21m
Length of Day
15h 13m
Waxing Gibbous, 71% of the Moon is Illuminated
Jun 18
Waxing Gibbous
Jun 23
Full
Jun 29
Last Quarter
Jul 8
New
Jul 15
First Quarter

Hourly Weather History & Observations

Time (CDT) Temp. Dew Point Humidity Pressure Visibility Wind Dir Wind Speed Gust Speed Precip Events Conditions
12:15 AM 71.6 °F 55.4 °F 57% 29.93 in 10.0 mi Calm Calm - N/A   Scattered Clouds
12:35 AM 69.8 °F 57.2 °F 64% 29.93 in 10.0 mi NE 9.2 mph - N/A   Partly Cloudy
12:55 AM 68.0 °F 57.2 °F 68% 29.94 in 10.0 mi ENE 10.4 mph - N/A   Partly Cloudy
1:15 AM 68.0 °F 57.2 °F 68% 29.93 in 10.0 mi ENE 11.5 mph - N/A   Partly Cloudy
1:35 AM 66.2 °F 57.2 °F 73% 29.93 in 10.0 mi ENE 11.5 mph - N/A   Clear
1:55 AM 66.2 °F 55.4 °F 68% 29.93 in 10.0 mi ENE 12.7 mph - N/A   Clear
2:15 AM 64.4 °F 55.4 °F 73% 29.94 in 10.0 mi ENE 11.5 mph - N/A   Clear
2:35 AM 64.4 °F 53.6 °F 68% 29.94 in 10.0 mi ENE 10.4 mph - N/A   Clear
2:55 AM 62.6 °F 53.6 °F 72% 29.94 in 10.0 mi ENE 9.2 mph - N/A   Clear
3:15 AM 62.6 °F 51.8 °F 68% 29.95 in 10.0 mi ENE 10.4 mph - N/A   Clear
3:35 AM 62.6 °F 51.8 °F 68% 29.95 in 10.0 mi ENE 11.5 mph - N/A   Clear
3:55 AM 62.6 °F 51.8 °F 68% 29.95 in 10.0 mi ENE 11.5 mph - N/A   Clear
4:15 AM 60.8 °F 51.8 °F 72% 29.97 in 10.0 mi ENE 13.8 mph - N/A   Clear
4:35 AM 60.8 °F 51.8 °F 72% 29.98 in 10.0 mi ENE 13.8 mph - N/A   Clear
4:55 AM 59.0 °F 50.0 °F 72% 29.99 in 10.0 mi ENE 15.0 mph - N/A   Clear
5:15 AM 59.0 °F 48.2 °F 67% 29.99 in 10.0 mi ENE 11.5 mph - N/A   Clear
5:35 AM 59.0 °F 48.2 °F 67% 29.99 in 10.0 mi ENE 15.0 mph - N/A   Clear
5:55 AM 59.0 °F 48.2 °F 67% 30.00 in 10.0 mi ENE 13.8 mph - N/A   Clear
6:15 AM 59.0 °F 48.2 °F 67% 30.01 in 10.0 mi ENE 12.7 mph - N/A   Clear
6:35 AM 59.0 °F 48.2 °F 67% 30.01 in 10.0 mi ENE 15.0 mph - N/A   Clear
6:55 AM 60.8 °F 48.2 °F 63% 30.02 in 10.0 mi ENE 16.1 mph - N/A   Clear
7:15 AM 60.8 °F 48.2 °F 63% 30.02 in 10.0 mi ENE 17.3 mph - N/A   Clear
7:35 AM 60.8 °F 48.2 °F 63% 30.02 in 10.0 mi ENE 16.1 mph - N/A   Partly Cloudy
7:55 AM 62.6 °F 50.0 °F 63% 30.03 in 10.0 mi NE 15.0 mph - N/A   Partly Cloudy
8:15 AM 62.6 °F 51.8 °F 68% 30.03 in 10.0 mi ENE 16.1 mph - N/A   Clear
8:35 AM 64.4 °F 51.8 °F 64% 30.04 in 10.0 mi ENE 13.8 mph - N/A   Partly Cloudy
8:55 AM 64.4 °F 51.8 °F 64% 30.04 in 10.0 mi NE 15.0 mph - N/A   Partly Cloudy
9:35 AM 68.0 °F 51.8 °F 56% 30.04 in 10.0 mi ENE 13.8 mph 19.6 mph N/A   Clear
9:55 AM 69.8 °F 51.8 °F 53% 30.04 in 10.0 mi ENE 15.0 mph - N/A   Clear
10:15 AM 69.8 °F 51.8 °F 53% 30.04 in 10.0 mi ENE 13.8 mph - N/A   Clear
10:35 AM 69.8 °F 53.6 °F 56% 30.04 in 10.0 mi ENE 12.7 mph - N/A   Clear
10:55 AM 71.6 °F 53.6 °F 53% 30.05 in 10.0 mi NE 13.8 mph - N/A   Clear
11:15 AM 71.6 °F 53.6 °F 53% 30.05 in 10.0 mi East 13.8 mph - N/A   Clear
11:35 AM 73.4 °F 53.6 °F 50% 30.04 in 10.0 mi ENE 13.8 mph - N/A   Clear
11:55 AM 73.4 °F 53.6 °F 50% 30.04 in 10.0 mi ENE 10.4 mph - N/A   Clear
12:15 PM 73.4 °F 53.6 °F 50% 30.05 in 10.0 mi East 12.7 mph 18.4 mph N/A   Clear
12:35 PM 75.2 °F 53.6 °F 47% 30.04 in 10.0 mi ENE 11.5 mph 18.4 mph N/A   Clear
12:55 PM 75.2 °F 53.6 °F 47% 30.04 in 10.0 mi NE 15.0 mph 20.7 mph N/A   Clear
1:15 PM 75.2 °F 53.6 °F 47% 30.05 in 10.0 mi NE 13.8 mph 18.4 mph N/A   Clear
1:35 PM 77.0 °F 53.6 °F 44% 30.05 in 10.0 mi NE 13.8 mph - N/A   Clear
1:55 PM 77.0 °F 53.6 °F 44% 30.05 in 10.0 mi NE 9.2 mph 19.6 mph N/A   Clear
2:15 PM 78.8 °F 53.6 °F 42% 30.04 in 10.0 mi NNE 11.5 mph 16.1 mph N/A   Clear
2:35 PM 77.0 °F 53.6 °F 44% 30.04 in 10.0 mi ENE 13.8 mph 18.4 mph N/A   Clear
2:55 PM 78.8 °F 53.6 °F 42% 30.04 in 10.0 mi ENE 6.9 mph - N/A   Clear
3:15 PM 78.8 °F 53.6 °F 42% 30.04 in 10.0 mi NE 12.7 mph 16.1 mph N/A   Clear
3:35 PM 78.8 °F 53.6 °F 42% 30.04 in 10.0 mi NE 11.5 mph - N/A   Clear
3:55 PM 78.8 °F 53.6 °F 42% 30.04 in 10.0 mi NE 11.5 mph - N/A   Clear
4:15 PM 78.8 °F 53.6 °F 42% 30.03 in 10.0 mi NE 12.7 mph 16.1 mph N/A   Clear
4:35 PM 78.8 °F 55.4 °F 44% 30.03 in 10.0 mi NE 9.2 mph 17.3 mph N/A   Clear
4:55 PM 78.8 °F 55.4 °F 44% 30.02 in 10.0 mi ENE 11.5 mph - N/A   Partly Cloudy
5:15 PM 78.8 °F 53.6 °F 42% 30.02 in 10.0 mi ENE 11.5 mph - N/A   Clear
5:35 PM 78.8 °F 53.6 °F 42% 30.02 in 10.0 mi East 11.5 mph - N/A   Clear
5:55 PM 78.8 °F 53.6 °F 42% 30.02 in 10.0 mi NE 15.0 mph - N/A   Partly Cloudy
6:15 PM 77.0 °F 53.6 °F 44% 30.02 in 10.0 mi NE 13.8 mph - N/A   Clear
6:35 PM 77.0 °F 53.6 °F 44% 30.03 in 10.0 mi NE 13.8 mph 17.3 mph N/A   Clear
6:55 PM 75.2 °F 53.6 °F 47% 30.03 in 10.0 mi ENE 12.7 mph - N/A   Clear
7:15 PM 75.2 °F 53.6 °F 47% 30.03 in 10.0 mi NE 11.5 mph - N/A   Clear
7:35 PM 73.4 °F 53.6 °F 50% 30.04 in 10.0 mi ENE 10.4 mph - N/A   Clear
7:55 PM 73.4 °F 53.6 °F 50% 30.04 in 10.0 mi ENE 12.7 mph - N/A   Clear
8:15 PM 71.6 °F 53.6 °F 53% 30.04 in 10.0 mi ENE 9.2 mph - N/A   Clear
8:35 PM 69.8 °F 53.6 °F 56% 30.05 in 10.0 mi ENE 10.4 mph - N/A   Clear
8:55 PM 69.8 °F 53.6 °F 56% 30.05 in 10.0 mi East 8.1 mph - N/A   Clear
9:15 PM 66.2 °F 53.6 °F 64% 30.06 in 10.0 mi East 6.9 mph - N/A   Clear
9:35 PM 66.2 °F 53.6 °F 64% 30.07 in 10.0 mi East 8.1 mph - N/A   Clear
9:55 PM 66.2 °F 53.6 °F 64% 30.07 in 10.0 mi East 10.4 mph - N/A   Clear
10:15 PM 66.2 °F 51.8 °F 60% 30.08 in 10.0 mi East 11.5 mph - N/A   Clear
10:35 PM 66.2 °F 51.8 °F 60% 30.08 in 10.0 mi East 10.4 mph - N/A   Clear
10:55 PM 64.4 °F 51.8 °F 64% 30.08 in 10.0 mi East 10.4 mph - N/A   Clear
11:15 PM 64.4 °F 48.2 °F 56% 30.08 in 10.0 mi East 10.4 mph - N/A   Clear
11:35 PM 64.4 °F 48.2 °F 56% 30.08 in 10.0 mi East 9.2 mph - N/A   Clear
11:55 PM 62.6 °F 48.2 °F 59% 30.09 in 10.0 mi East 12.7 mph - N/A   Clear